Zurück zum Katalog

HAWK-14A

AktivWissenschaftSSO
NORAD 68448·PAYLOAD·🇺🇸 United States

Gestartet Mar 30, 2026 von Vandenberg Space Force Base

Loading…

Nächste Überflüge (nächste 24 Stunden)

TLE

AktuellSource: Space-Track

Epoche: Sep 13, 2026, 20:15 UTC

1 68448U 26067AJ  26256.84393268  .00003669  00000-0  17941-3 0  9994
2 68448  97.4707 214.2732 0004954 115.7931 244.3815 15.18837155 25396

Verfolge HAWK-14A in Echtzeit mit AllMySat

Download on the App Store